map of MSQ home
Great Circle Mapper logo
MSQ - Airport
Location
City:  Minsk, Belarus
Name:Minsk-2
ICAO / IATA:UMMS / MSQ

Details
Type:Airport (Aerodrome, Airfield)
Use:Public/Civil, International (customs port of entry)
Latitude:5352'57"N (53.882469)
Longitude:2801'51"E (28.030731)
Datum:WGS 1984
Elevation:670 ft (204 m)
Runways:1
Longest:11946 × 197 ft (3641 × 60 m), paved

Time
Time Zone:UTC+2 (DST+3)

Weather
METAR:UMMS 202130Z 11002G05MPS 9000 -SHRA BKN050CB BKN079 10/08 Q1017 R13/290060 NOSIG
TAF:UMMS 201645Z 2018/2118 16006MPS 5000 -SHRA BR BKN020CB
TEMPO 2018/2021 1200 SHRA SCT004
TEMPO 2021/2106 0400 FG SCT002
BECMG 2106/2107 17007MPS 9999 BKN015
TEMPO 2107/2118 3000 -SHRA SCT020CB

Related Locations
Nearby:
Farthest:CHT: 11130 mi / 17912 km
Waitangi [Tuuta], Chatham Islands, NZ

Find:

   beyond  
but within

Other Information
Maps:
NOTAMs:
Links:
Sources:

  
flag of Belarus   

Sectional Chart

Flight Planning
at skyvector.com

Satellite Image

Google Maps Satellite View

 

Copyright © 2004-2014 Karl L. Swartz. All rights reserved.
The Great Circle Mapper name and logo are trademarks of the Great Circle Mapper.
All other trademarks mentioned herein belong to their respective owners.
Please see credits for attibutions and further copyright information.

  Follow gcmap on Facebook Follow gcmap on Twitter

hCard Microformat

Geo Microformat